Hlavní strana
METAR-TAF:

METAR-TAF

Letiště :

Aiken, Jižní Karolína, Spojené státy americké

zeměpisná šířka: 33-38-58N, zeměpisná délka: 081-41-06W, výška: 161 m

Aktuální stav počasí

Zpráva byla vytvořena před 28 minutami, v 02:55 UTC
Bezvětří
Teplota 22°C
Vlhkost vzduchu 94%
Tlak 1018 hPa
Viditelnost: 16.1 km
Jasno
bouřka v blíkosti

METAR: KAIK 300255Z AUTO 00000KT 10SM VCTS CLR 22/21 A3006 RMK AO2 T02160210 60028

Čas: 23:23 (03:23 UTC)


TAF: chybějící

Stav a předpovědi počasí z více než 4 000 letišť (zprávy METAR a TAF).

Červené a žluté tečky na mapě představují dostupné meteorologické stanice.

Když kurzor umístíte na tečku, zobrazí se název stanice.

Pak kliknutím zobrazíte stav a předpověď počasí.

Chcete-li změnit mapu, kliknutím na zelené tlačítko se znaménkem +mapu přiblížíte, kliknutím na zelené tlačítko se znaménkem – mapu oddálíte a kliknutím na zelené šipky přejdete na sousední mapy.


METAR-TAF: